This is the latest recevied weather packets stored in our database for station/object W7PLC. If no packets are shown the sender has not sent any weather packets the latest 1 day(s).
| Time | Temp. | Humidity | Pressure | Rain* | Wind** | Luminosity | Snow |
|---|---|---|---|---|---|---|---|
| 1778030834 | 18.33° C | 72% | 1013.3 hPa | 0 mm | 0 m/s | 26 W/m² | - |
| 1778030531 | 18.33° C | 72% | 1013.3 hPa | 0 mm | 0 m/s | 27 W/m² | - |
| 1778030228 | 18.33° C | 72% | 1013.3 hPa | 0 mm | 0 m/s | 28 W/m² | - |
| 1778029924 | 18.89° C | 71% | 1013.2 hPa | 0 mm | 0 m/s | 28 W/m² | - |
| 1778029623 | 18.89° C | 71% | 1013.3 hPa | 0 mm | 0 m/s | 30 W/m² | - |
| 1778029320 | 19.44° C | 69% | 1013.1 hPa | 0 mm | 0 m/s | 32 W/m² | - |
| 1778029017 | 20° C | 68% | 1013.2 hPa | 0 mm | 0 m/s | 33 W/m² | - |
| 1778028713 | 20.56° C | 67% | 1013.3 hPa | 0 mm | 0 m/s | 36 W/m² | - |
| 1778028409 | 20° C | 66% | 1013.3 hPa | 0 mm | 0 m/s | 105 W/m² | - |
| 1778028107 | 20.56° C | 66% | 1013.3 hPa | 0 mm | 0 m/s | 215 W/m² | - |
| 1778027803 | 20.56° C | 65% | 1013.4 hPa | 0 mm | 0 m/s | 240 W/m² | - |
| 1778027500 | 20.56° C | 66% | 1013.3 hPa | 0 mm | 0 m/s | 272 W/m² | - |
| 1778027195 | 20.56° C | 65% | 1013.5 hPa | 0 mm | 0 m/s | 288 W/m² | - |
| 1778026892 | 20.56° C | 65% | 1013.4 hPa | 0 mm | 0.45 m/s, 50° | 281 W/m² | - |
| 1778026587 | 20° C | 66% | 1013.4 hPa | 0 mm | 0 m/s | 289 W/m² | - |
| 1778026285 | 20.56° C | 66% | 1013.7 hPa | 0 mm | 0 m/s | 311 W/m² | - |
| 1778025982 | 20° C | 68% | 1013.5 hPa | 0 mm | 0 m/s | 378 W/m² | - |
| 1778025680 | 20° C | 66% | 1013.5 hPa | 0 mm | 0 m/s | 340 W/m² | - |
| 1778025378 | 20° C | 66% | 1013.7 hPa | 0 mm | 0.45 m/s, 53° | 400 W/m² | - |
| 1778025074 | 19.44° C | 69% | 1013.7 hPa | 0 mm | 0.45 m/s, 312° | 428 W/m² | - |
| 1778024771 | 20° C | 69% | 1013.6 hPa | 0 mm | 0 m/s | 490 W/m² | - |
| 1778024468 | 19.44° C | 69% | 1013.6 hPa | 0 mm | 0.45 m/s, 47° | 382 W/m² | - |
| 1778024166 | 19.44° C | 70% | 1013.9 hPa | 0 mm | 0 m/s | 203 W/m² | - |
| 1778023862 | 18.89° C | 71% | 1013.9 hPa | 0 mm | 0 m/s | 372 W/m² | - |
| 1778023560 | 18.89° C | 72% | 1013.9 hPa | 0 mm | 0.45 m/s, 344° | 220 W/m² | - |
* Rain latest hour (hover to see other rain measurements)
** Current wind speed in m/s (hover to see current wind gust speed)